Flag for U.S.A. Weather past 2 weeks in Jersey City, New Jersey, U.S.A.

Now
78 °F

Overcast.


Feels Like: 79 °F
Forecast: 70 / 82 °F
Wind: 13 mph from West

Location: Newark International Airport

Current Time: Jul 2, 2015 at 12:18:57 AM

Latest Report: Jul 1, 2015 at 10:51 PM


Visibility: 10 mi

Pressure: 29.86 "Hg

Humidity: 52%

Dew point: 59 °F

Location of Jersey CityLocation

Historic Weather in Jersey City — Graph

°F

Jersey City temperature yesterday

Maximum temperature yesterday: 84 °F (at 3:56 PM)
Minimum temperature yesterday: 70 °F (at 4:51 AM)
Average temperature yesterday: 77 °F

Past Weeks' High & Low Weather Summary

 TemperatureHumidityPressure
High92 °F (Jun 23, 4:51 PM)100% (Jun 21, 3:58 AM)30.13 "Hg (Jun 21, 3:58 AM)
Low61 °F (Jun 27, 8:51 PM)31% (Jun 25, 12:51 PM)29.65 "Hg (Jun 28, 5:51 AM)
Average74 °F66%29.92 "Hg
* Reported Jun 16 10:51 PM — Jul 1 10:51 PM, Jersey City, Weather by CustomWeather, © 2015

Note: Actual official high and low records may vary slightly from our data, if they occured in-between our weather recording intervals... More about our weather records

Advertising

Jersey City weather history for previous 24 hours

 ConditionsComfort  
Time TempWeatherWind HumidityBarometerVisibility
10:51 PM
Wed, Jul 1
78 °FOvercast.13 mph52%29.86 "Hg10 mi
9:51 PM79 °FPassing clouds.8 mph50%29.85 "Hg10 mi
8:51 PM79 °FPartly sunny.9 mph48%29.82 "Hg10 mi
7:51 PM81 °FPartly sunny.16 mph45%29.79 "Hg10 mi
6:51 PM83 °FBroken clouds.14 mph48%29.77 "Hg10 mi
5:51 PM84 °FScattered clouds.16 mph46%29.77 "Hg10 mi
4:51 PM84 °FScattered clouds.20 mph48%29.76 "Hg10 mi
3:56 PM84 °FPartly sunny.18 mph45%29.75 "Hg10 mi
2:51 PM82 °FPartly sunny.15 mph55%29.77 "Hg10 mi
1:51 PM83 °FPartly sunny.10 mph55%29.78 "Hg10 mi
12:51 PM81 °FScattered clouds.17 mph54%29.79 "Hg10 mi
11:51 AM79 °FScattered clouds.10 mph60%29.79 "Hg10 mi
10:51 AM77 °FBroken clouds.9 mph66%29.80 "Hg10 mi
9:51 AM74 °FPartly sunny.15 mph76%29.80 "Hg10 mi
8:51 AM72 °FPartly sunny.8 mph84%29.78 "Hg10 mi
7:51 AM71 °FBroken clouds.9 mph87%29.78 "Hg8 mi
6:51 AM70 °FCloudy.9 mph87%29.78 "Hg8 mi
5:51 AM70 °FMostly cloudy.6 mph90%29.75 "Hg10 mi
4:51 AM70 °FLight rain. Mostly cloudy.8 mph93%29.76 "Hg10 mi
3:51 AM73 °FThunderstorms. Overcast.No wind90%29.75 "Hg9 mi
2:51 AM74 °FMostly cloudy.No wind91%29.78 "Hg10 mi
1:51 AM74 °FPartly cloudy.3 mph88%29.79 "Hg10 mi
1:01 AM73 °FPassing clouds.5 mph89%29.82 "Hg10 mi
Weather by CustomWeather, © 2015

See weather overviewHow to use our weather pages